This is the latest recevied weather packets stored in our database for station/object EA7HQL-10. If no packets are shown the sender has not sent any weather packets the latest 1 day(s).
| Time | Temp. | Humidity | Pressure | Rain* | Wind** | Luminosity | Snow |
|---|---|---|---|---|---|---|---|
| 1778021709 | 20.56° C | 43% | 1009.5 hPa | 0 mm | 0.89 m/s, 97° | - | - |
| 1778021454 | 20.56° C | 43% | 1009.5 hPa | 0 mm | 1.34 m/s, 317° | - | - |
| 1778021162 | 20.56° C | 43% | 1009.5 hPa | 0 mm | 0.89 m/s, 295° | - | - |
| 1778020924 | 20.56° C | 43% | 1009.7 hPa | 0 mm | 0.89 m/s, 318° | - | - |
| 1778020624 | 20.56° C | 43% | 1009.6 hPa | 0 mm | 0.89 m/s, 288° | - | - |
| 1778020349 | 20.56° C | 43% | 1009.7 hPa | 0 mm | 0.89 m/s, 294° | - | - |
| 1778020104 | 20.56° C | 43% | 1009.6 hPa | 0 mm | 1.79 m/s, 323° | - | - |
| 1778019829 | 20.56° C | 42% | 1009.5 hPa | 0 mm | 3.13 m/s, 15° | - | - |
| 1778019534 | 20.56° C | 42% | 1009.8 hPa | 0 mm | 2.24 m/s, 23° | - | - |
| 1778019269 | 20.56° C | 42% | 1009.6 hPa | 0 mm | 3.13 m/s, 343° | - | - |
| 1778018974 | 20.56° C | 41% | 1009.7 hPa | 0 mm | 0.89 m/s, 90° | - | - |
| 1778018699 | 21.11° C | 41% | 1009.8 hPa | 0 mm | 2.24 m/s, 333° | - | - |
| 1778018412 | 21.11° C | 40% | 1009.7 hPa | 0 mm | 2.68 m/s, 336° | - | - |
| 1778018141 | 21.11° C | 40% | 1009.7 hPa | 0 mm | 2.68 m/s, 268° | - | - |
| 1778017854 | 21.11° C | 40% | 1009.8 hPa | 0 mm | 2.24 m/s, 220° | - | - |
| 1778017573 | 21.11° C | 39% | 1009.8 hPa | 0 mm | 2.24 m/s, 266° | - | - |
| 1778017275 | 21.11° C | 39% | 1009.8 hPa | 0 mm | 2.24 m/s, 304° | - | - |
| 1778017004 | 21.11° C | 39% | 1010 hPa | 0 mm | 2.24 m/s, 263° | - | - |
| 1778016754 | 21.11° C | 39% | 1009.9 hPa | 0 mm | 2.68 m/s, 251° | - | - |
| 1778016509 | 21.11° C | 38% | 1009.6 hPa | 0 mm | 3.13 m/s, 172° | - | - |
| 1778016209 | 21.67° C | 37% | 1009.9 hPa | 0 mm | 4.02 m/s, 256° | - | - |
| 1778015914 | 21.67° C | 36% | 1009.8 hPa | 0 mm | 1.34 m/s, 336° | - | - |
| 1778015644 | 21.67° C | 35% | 1009.7 hPa | 0 mm | 1.79 m/s, 303° | - | - |
| 1778015344 | 21.67° C | 35% | 1009.7 hPa | 0 mm | 0.89 m/s, 261° | - | - |
| 1778015049 | 21.67° C | 34% | 1009.7 hPa | 0 mm | 0.89 m/s, 45° | - | - |
* Rain latest hour (hover to see other rain measurements)
** Current wind speed in m/s (hover to see current wind gust speed)